Find Starlink 6354

NORAD ID: 56784 Int'l Des: 2023-078 Owner: SPXS Country: US Constellation: starlink operational
LEOCIRCULAR

Live-Position

3D-Globus wird geladen...

Über Starlink 6354

Beschreibung wird geladen...

Nächste Überflüge

Passes for default location (London). Set your location on the main map for personalized predictions.

Höhenverlauf

Loading altitude history...

Zweizeiliger Elementsatz

1 56784U 23078T 26124.51938773 .00000906 00000-0 83676-4 0 9997
2 56784 69.9995 183.7949 0003641 270.1262 89.9479 14.98331418161538
Epoch: 4. Mai 2026 • Age: 19 hours

Aktueller Status

Höhe 592.9 km
Geschwindigkeit 7.56 km/s
Subsatellitenpunkt -62.09°S, 73.74°E
Startdatum 31. Mai 2023
Alter 2.9 years
Typ internet

Technische Details

Klassifizierung Payload
Masse 305.00 kg
Trockenmasse 290.00 kg
Gesamtmasse 305.00 kg
Länge 0.20 m
Durchmesser 2.80 m
Spannweite 9.00 m
Form Box + pan
Hersteller SPXS
Bus-Typ Starlink
Phasenstatus In Orbit
Besitzer/Staat SPXS/US

Most Searched